ENBN Weather Reports


time (UTC)temp
C
wind
direction
speed
KPH
gust
KPH
rain 1hr
cm
rain 24hr
cm
rain mn
cm
humidity
%
barometer
mb
20260508090307 8 110 12.9 0.0 0.00 0.00 0.00 53 1021.0
20260508083307 8 90 16.1 0.0 0.00 0.00 0.00 53 1021.0
20260508073307 7 90 12.9 0.0 0.00 0.00 0.00 56 1022.0
20260508070306 7 90 12.9 0.0 0.00 0.00 0.00 56 1022.0
20260508063306 6 90 16.1 0.0 0.00 0.00 0.00 60 1022.0
20260508060306 5 90 14.5 0.0 0.00 0.00 0.00 65 1022.0
20260508053307 5 90 16.1 0.0 0.00 0.00 0.00 65 1022.0
20260508050306 5 90 12.9 0.0 0.00 0.00 0.00 65 1022.0
20260508043306 5 40 8.0 0.0 0.00 0.00 0.00 70 1022.0
20260508040307 3 40 4.8 0.0 0.00 0.00 0.00 75 1022.0
20260508030306 1 0 0.0 0.0 0.00 0.00 0.00 86 1022.0
20260508023307 1 0 0.0 0.0 0.00 0.00 0.00 86 1022.0
20260508020307 1 90 4.8 0.0 0.00 0.00 0.00 86 1022.0
20260508013307 2 150 9.7 0.0 0.00 0.00 0.00 80 1022.0
20260508010306 2 150 9.7 0.0 0.00 0.00 0.00 86 1022.0
20260508003306 3 170 4.8 0.0 0.00 0.00 0.00 80 1022.0
20260508000306 3 180 4.8 0.0 0.00 0.00 0.00 80 1021.0
20260507233306 3 190 8.0 0.0 0.00 0.00 0.00 80 1021.0
20260507230306 2 190 8.0 0.0 0.00 0.00 0.00 86 1021.0
20260507223306 2 190 8.0 0.0 0.00 0.00 0.00 86 1021.0
20260507220306 3 210 4.8 0.0 0.00 0.00 0.00 80 1021.0
20260507213306 3 210 4.8 0.0 0.00 0.00 0.00 80 1020.0
20260507210307 3 220 4.8 0.0 0.00 0.00 0.00 80 1020.0
20260507203307 3 220 4.8 0.0 0.00 0.00 0.00 86 1020.0
20260507200305 3 220 8.0 0.0 0.00 0.00 0.00 80 1019.0
20260507193306 5 240 8.0 0.0 0.00 0.00 0.00 75 1019.0
20260507190307 5 250 8.0 0.0 0.00 0.00 0.00 70 1019.0
20260507183307 5 250 12.9 0.0 0.00 0.00 0.00 70 1019.0
20260507180310 5 240 14.5 0.0 0.00 0.00 0.00 70 1018.0
20260507173308 6 200 12.9 0.0 0.00 0.00 0.00 70 1018.0
20260507170307 5 210 11.3 0.0 0.00 0.00 0.00 75 1018.0
20260507163307 5 230 9.7 0.0 0.00 0.00 0.00 75 1018.0
20260507160308 6 220 11.3 0.0 0.00 0.00 0.00 75 1018.0
20260507153308 6 190 11.3 0.0 0.00 0.00 0.00 70 1018.0
20260507150308 6 180 11.3 0.0 0.00 0.00 0.00 70 1017.0
20260507143307 6 190 11.3 0.0 0.00 0.00 0.00 65 1017.0
20260507140308 6 190 12.9 0.0 0.00 0.00 0.00 70 1017.0
20260507133307 5 210 11.3 0.0 0.00 0.00 0.00 80 1017.0
20260507130307 5 240 19.3 0.0 0.00 0.00 0.00 80 1017.0
20260507123308 5 200 20.9 0.0 0.00 0.00 0.00 75 1017.0
20260507120307 5 200 20.9 0.0 0.00 0.00 0.00 86 1017.0
20260507113308 3 210 25.7 0.0 0.00 0.00 0.00 86 1017.0
20260507110307 5 210 25.7 0.0 0.00 0.00 0.00 80 1016.0
20260507103307 5 220 25.7 0.0 0.00 0.00 0.00 75 1016.0
20260507100308 5 210 22.5 0.0 0.00 0.00 0.00 80 1016.0
20260507093307 5 200 14.5 0.0 0.00 0.00 0.00 70 1016.0